Regional Weather Roundup
Issued by NWS

Home | Current Version | Previous Version | Text Only | Print | Product List | Glossary Off
Versions: 1 2 3 4 5 6 7 8 9 10 11 12 13 14 15 16 17 18 19 20 21 22 23 24 25 26 27 28 29 30 31 32 33 34 35 36 37 38 39 40 41 42 43 44 45 46 47 48 49 50

000
ASUS43 KIND 221800
RWRIN

WEATHER ROUNDUP FOR INDIANA
NATIONAL WEATHER SERVICE INDIANAPOLIS IN
200 PM EDT TUE AUG 22 2017

NOTE: "FAIR" INDICATES FEW OR NO CLOUDS BELOW 12,000 FEET WITH NO
SIGNIFICANT WEATHER AND/OR OBSTRUCTIONS TO VISIBILITY.

* - STATION DOES NOT REPORT WEATHER SUCH AS PRECIPITATION OR FOG.

+ - STATION NOT QUALITY CONTROLLED BY THE NATIONAL WEATHER SERVICE.
    USE DATA WITH CAUTION...ESPECIALLY DEWPOINT AND RELATIVE
    HUMIDITY OBSERVATIONS.

INZ001>003-010>013-019-020-221900-
NORTHWEST INDIANA

CITY           SKY/WX    TMP DP  RH WIND       PRES   REMARKS
MICHIGAN CITY+ CLOUDY    72  66  83 NW8       29.91R
MONTICELLO +   CLOUDY    75  68  77 SW13G20   29.91S
6HR MIN TEMP:  67; 6HR MAX TEMP:  76; 6HR PCP:  0.03;


$$

LMZ046-743>745-221900-
SOUTHERN LAKE MICHIGAN

STATION/POSITION TIME  TEMP    WIND        PRES    WAVE
                       AIR SEA DIR/SP/G            HT
                 (UTC) (F)     (DEG/KT/KT) (MB)    (FT)
BURNS HARBOR     1740   74     280/ 14/ 17 1012.5R
MICHIGAN CITY    1730   73     270/ 20/ 22   N/A
5NW MICH CITY    1750   72 74  330/ 14/ 17   N/A     4

$$

INZ004-005-014>016-021>024-221900-
NORTH CENTRAL INDIANA

CITY           SKY/WX    TMP DP  RH WIND       PRES   REMARKS
ELKHART        CLOUDY    77  66  69 W17G23    29.87R
GOSHEN         CLOUDY    77  66  68 W17       29.87R
6HR MIN TEMP:  69; 6HR MAX TEMP:  77; 6HR PCP:  0.04;

PERU/GRISSOM   PTSUNNY   75  70  83 SW10      29.90F
SOUTH BEND     LGT RAIN  69  68  96 NW15G29   29.89R FOG
6HR MIN TEMP:  68; 6HR MAX TEMP:  76; 6HR PCP:  0.02;


$$

INZ006>009-017-018-025>027-221900-
NORTHEAST INDIANA

CITY           SKY/WX    TMP DP  RH WIND       PRES   REMARKS
FORT WAYNE     PTSUNNY   76  66  71 SW15      29.89F
6HR MIN TEMP:  69; 6HR MAX TEMP:  76; 6HR PCP:  0.03;


$$

INZ028-029-035-036-043>045-051>053-221900-
WEST CENTRAL INDIANA

CITY           SKY/WX    TMP DP  RH WIND       PRES   REMARKS
LAFAYETTE      CLOUDY    75  68  78 W9        29.91S
6HR MIN TEMP:  67; 6HR MAX TEMP:  76; 6HR PCP:  0.03;

TERRE HAUTE    CLOUDY    74  69  85 SW8       29.96S
6HR MIN TEMP:  72; 6HR MAX TEMP:  77; 6HR PCP:  0.17;


$$

INZ030>032-037>040-046>048-054>057-064-065-221900-
CENTRAL INDIANA

CITY           SKY/WX    TMP DP  RH WIND       PRES   REMARKS
ANDERSON       SUNNY     77  66  69 MISG      29.94
COLUMBUS       CLOUDY    73  68  83 SW7       29.95F
GREENWOOD *+   PTSUNNY  N/A N/A N/A W9        29.95F
INDIANAPOLIS   CLOUDY    76  68  76 W16       29.94S
6HR MIN TEMP:  70; 6HR MAX TEMP:  76; 6HR PCP:  0.30;

-EAGLE CREEK   LGT RAIN  75  68  78 SW5       29.93F
6HR MIN TEMP:  71; 6HR MAX TEMP:  75; 6HR PCP:  0.08;

KOKOMO +       PTSUNNY   76  68  76 W13       29.92S
MT COMFORT *+  CLOUDY    73  68  83 SW9       29.95F
SHELBYVILLE    CLOUDY    77  68  73 SW8       29.94F
6HR MIN TEMP:  73; 6HR MAX TEMP:  77; 6HR PCP:  0.41;


$$

INZ033-034-041-042-049-050-058-059-221900-
EAST CENTRAL INDIANA

CITY           SKY/WX    TMP DP  RH WIND       PRES   REMARKS
MUNCIE         CLOUDY    77  67  71 SW12G20   29.92F
6HR MIN TEMP:  72; 6HR MAX TEMP:  79; 6HR PCP:  0.06;

RICHMOND +     CLOUDY    70  70 100 SW8       29.95F

$$

INZ060-061-067>069-081>083-085>088-221900-
SOUTHWEST INDIANA

CITY           SKY/WX    TMP DP  RH WIND       PRES   REMARKS
EVANSVILLE     CLOUDY    82  74  76 NW6       29.95F
6HR MIN TEMP:  74; 6HR MAX TEMP:  83; 6HR PCP:  0.37;

HUNTINGBURG +  CLOUDY    82  75  79 CALM      29.95F
6HR MIN TEMP:  75; 6HR MAX TEMP:  82; 6HR PCP: TRACE;


$$

INZ062-063-066-070>080-084-089>092-221900-
SOUTH CENTRAL AND SOUTHEAST INDIANA

CITY           SKY/WX    TMP DP  RH WIND       PRES   REMARKS
BLOOMINGTON    CLOUDY    74  69  85 W5        29.98R
6HR MIN TEMP:  72; 6HR MAX TEMP:  78; 6HR PCP:  0.26;

MADISON *+     CLOUDY    81  73  78 SW5       29.97F
SEYMOUR +      CLOUDY    81  70  69 W8        29.96S

$$




USA.gov is the U.S. government's official web portal to all federal, state and local government web resources and services.